Location: Jackson Park
(37.2862°N, 79.9123°W)
Time: 21:32:53
(UTC+00:00)

Transit 4A - Pass Details

Date: 14 May 2026
Orbit: 860 x 980 km, 66.8° (Epoch: 9 June)

Event Time Altitude Azimuth Distance (km) Brightness Sun altitude
Rises 15:30:35 0° 274° (W) 3,580 10.7 60.4°
Reaches altitude 10° 15:35:52 10° 312° (NW) 2,675 10.1 61.3°
Maximum altitude 15:37:06 11° 323° (NW) 2,642 10.1 61.5°
Drops below altitude 10° 15:38:21 10° 335° (NNW) 2,692 10.2 61.7°
Sets 15:43:47 0° 13° (NNE) 3,669 10.9 62.6°
